Tracking 32932 objects as of 14-Jan-2026
HD Live streaming from Space Station
objects crossing your sky now

ONEWEB-0195

Track ONEWEB-0195 now!
10-day predictions
ONEWEB-0195 is classified as:


NORAD ID: 48240
Int'l Code: 2021-031AG
Perigee: 1,211.9 km
Apogee: 1,214.0 km
Inclination: 87.9 °
Period: 109.5 minutes
Semi major axis: 7583 km
RCS: Unknown
Launch date: April 25, 2021
Source: United Kingdom (UK)
Launch site: VOSTOCHNY COSMODROME (VOSTO)
Your satellite tracking list
Your tracking list is empty




NASA's NSSDC Master Catalog

Two Line Element Set (TLE):
1 48240U 21031AG  26013.84303941  .00000163  00000-0  40543-3 0  9998
2 48240  87.9027 320.4483 0001355  85.5178 274.6106 13.14503918227872
Source of the keplerian elements: AFSPC